TimeHST,TemperatureF,Dew PointF,Humidity,Sea Level PressureIn,VisibilityMPH,Wind Direction,Wind SpeedMPH,Gust SpeedMPH,PrecipitationIn,Events,Conditions,WindDirDegrees,DateUTC
12:53 AM,71.1,64.9,81,30.02,10.0,Variable,5.8,-,N/A,,Clear,0,2014-02-24 10:53:00
1:53 AM,71.1,64.0,78,30.00,10.0,Variable,6.9,-,N/A,,Clear,0,2014-02-24 11:53:00
2:00 AM,69.8,64.4,83,29.98,10.0,Variable,4.6,-,N/A,,Partly Cloudy,0,2014-02-24 12:00:00
2:53 AM,69.1,63.0,81,29.99,10.0,Variable,3.5,-,N/A,,Clear,0,2014-02-24 12:53:00
3:53 AM,69.1,63.0,81,29.98,10.0,Variable,3.5,-,N/A,,Clear,0,2014-02-24 13:53:00
4:53 AM,69.1,63.0,81,29.98,10.0,North,3.5,-,N/A,,Clear,10,2014-02-24 14:53:00
5:53 AM,66.9,63.0,87,29.99,10.0,Variable,3.5,-,N/A,,Clear,0,2014-02-24 15:53:00
6:53 AM,66.0,62.1,87,30.01,10.0,Variable,3.5,-,N/A,,Clear,0,2014-02-24 16:53:00
7:53 AM,71.1,63.0,75,30.03,10.0,Variable,5.8,-,N/A,,Clear,0,2014-02-24 17:53:00
8:53 AM,73.9,62.1,66,30.04,10.0,Variable,4.6,-,N/A,,Clear,0,2014-02-24 18:53:00
9:53 AM,79.0,61.0,54,30.04,10.0,NE,8.1,-,N/A,,Clear,40,2014-02-24 19:53:00
10:53 AM,80.1,59.0,48,30.04,10.0,Variable,6.9,17.3,N/A,,Clear,0,2014-02-24 20:53:00
11:53 AM,82.9,59.0,44,30.02,10.0,Variable,5.8,-,N/A,,Partly Cloudy,0,2014-02-24 21:53:00
12:53 PM,80.1,61.0,52,29.99,10.0,SSW,8.1,-,N/A,,Partly Cloudy,210,2014-02-24 22:53:00
1:53 PM,81.0,61.0,50,29.96,10.0,WNW,5.8,-,N/A,,Scattered Clouds,290,2014-02-24 23:53:00
2:53 PM,82.0,60.1,47,29.94,10.0,NNW,6.9,-,N/A,,Partly Cloudy,330,2014-02-25 00:53:00
3:53 PM,82.0,59.0,45,29.93,10.0,Variable,3.5,-,N/A,,Clear,0,2014-02-25 01:53:00
4:53 PM,79.0,57.0,47,29.93,10.0,North,10.4,17.3,N/A,,Clear,10,2014-02-25 02:53:00
5:53 PM,75.0,57.9,55,29.93,10.0,NNE,9.2,20.7,N/A,,Clear,30,2014-02-25 03:53:00
6:53 PM,71.1,60.1,68,29.94,10.0,Variable,6.9,-,N/A,,Partly Cloudy,0,2014-02-25 04:53:00
7:53 PM,70.0,59.0,68,29.96,10.0,ENE,6.9,-,N/A,,Clear,60,2014-02-25 05:53:00
8:53 PM,69.1,59.0,70,29.98,10.0,Variable,5.8,-,N/A,,Clear,0,2014-02-25 06:53:00
9:53 PM,68.0,59.0,73,29.98,10.0,Variable,3.5,-,N/A,,Clear,0,2014-02-25 07:53:00
10:53 PM,66.9,59.0,76,29.98,10.0,Variable,4.6,-,N/A,,Clear,0,2014-02-25 08:53:00
11:53 PM,64.9,60.1,84,29.97,10.0,Calm,Calm,-,N/A,,Clear,0,2014-02-25 09:53:00